{"data":{"norad_id":63563,"intl_designator":"2025-075R","name":"STARLINK-32958","alt_names":[],"object_type":"PAYLOAD","status":"ACTIVE","operator":null,"country":"US","launch_date":"2025-04-13","launch_site_code":"AFETR","launch_vehicle":null,"mission":null,"orbit_class":"UNKNOWN","rcs_meters":null,"size_class":null,"mass_kg":null,"dimensions":null,"purposes":["comms"],"wikipedia_slug":null,"has_3d_model":false,"image_url":null,"decayed_at":null,"tle_current":{"epoch":"2026-05-25T03:59:39.344640Z","epoch_age_seconds":50856,"freshness":"FRESH","line1":"1 63563U 25075R   26145.16642760  .00019968  00000+0  73292-3 0  9990","line2":"2 63563  42.9998 198.7221 0001297 269.6048  90.4655 15.27591827 63623","mean_motion":15.27591827,"eccentricity":0.0001297,"inclination_deg":42.9998,"raan_deg":198.7221,"arg_perigee_deg":269.6048,"mean_anomaly_deg":90.4655,"bstar":0.00073292,"rev_number":6362,"period_min":94.266018876782,"perigee_km":482.12379073195,"apogee_km":483.90357321885,"semimajor_km":6861.1506819754,"source":"CELESTRAK","updated_at":"2026-05-25T13:38:20.043786Z"}}}